AirNav   Bose Proflight Series 2 Wireless viation Headset
 
 282 users online  

26AL Richardson Field Airport
Mobile, Alabama, USA

GOING TO MOBILE?


FAA INFORMATION EFFECTIVE 12 SEPTEMBER 2019

Location

FAA Identifier: 26AL
Lat/Long: 30-37-53.0000N 088-16-47.0000W
30-37.883333N 088-16.783333W
30.6313889,-88.2797222
(estimated)
Elevation: 180 ft. / 55 m (estimated)
Variation: 00W (2000)
From city: 12 miles SW of MOBILE, AL
Time zone: UTC -5 (UTC -6 during Standard Time)
Zip code: 36695

Airport Operations

Airport use: Private use. Permission required prior to landing
Activation date: 09/2002
Control tower: no
ARTCC: HOUSTON CENTER
FSS: ANNISTON FLIGHT SERVICE STATION
Attendance: UNATNDD
Wind indicator: yes
Segmented circle: no

Airport Communications

WX ASOS at MOB (4 nm NE): PHONE 251-607-0469
WX ASOS at BFM (11 nm E): PHONE 251-431-6762
WX ASOS at PQL (16 nm SW): 135.175 (228-474-2836)

Nearby radio navigation aids

VOR radial/distance  VOR name  Freq  Var
SJIr139/7.0SEMMES VORTAC115.3005E
BFMr272/11.6BROOKLEY VORTAC112.8004E
GCVr154/29.9GREENE COUNTY VORTAC115.7005E

 
NDB name  Hdg/Dist  Freq  Var  ID
WISLE172/7.824801WMOB -- --- -...

Airport Services

Runway Information

Runway 9/27

Dimensions: 2700 x 200 ft. / 823 x 61 m
Surface: turf
RUNWAY 9  RUNWAY 27
Traffic pattern: leftleft

Airport Ownership and Management from official FAA records

Ownership: Privately-owned
Owner: JOHN D RICHARDSON
9951 JEFF HAMILTON RD
MOBILE, AL 36695
Phone 251-633-5618
Manager: JOHN D RICHARDSON
9951 JEFF HAMILTON RD
MOBILE, AL 36695
Phone 251-633-5618

Airport Operational Statistics

Aircraft based on the field: 2
Single engine airplanes: 1
Multi engine airplanes: 1
    

Additional Remarks

OWNER DESIRES CHARTING.
FOR CD CTC HOUSTON ARTCC AT 281-230-5622.

Instrument Procedures

There are no published instrument procedures at 26AL.

Some nearby airports with instrument procedures:

KMOB - Mobile Regional Airport (4 nm NE)
2R5 - St Elmo Airport (8 nm S)
KBFM - Mobile Downtown Airport (11 nm E)
KPQL - Trent Lott International Airport (16 nm SW)
KCQF - H L Sonny Callahan Airport (23 nm SE)
 
Loc | Ops | Rwys | IFR | FBO | Links
Com | Nav | Svcs | Stats | Notes

Continental Motors
AirBoss

 
Area around 26AL (Richardson Field Airport)
 
Road maps at: MapQuest Bing Google
 
Aerial photo
No photo
 
Sectional chart

 
Airport distance calculator
Flying to Richardson Field Airport? Find the distance to fly.

From to 26AL

Sunrise and sunset
Times for 24-Sep-2019
 Local
(UTC-5)
 Zulu
(UTC)
Morning civil twilight06:2011:20
Sunrise06:4411:44
Sunset18:4723:47
Evening civil twilight19:1100:11

Current date and time
Zulu (UTC)  24-Sep-2019 09:13:42
Local (UTC-5)  24-Sep-2019 04:13:42
 
METAR
KMOB 
3nm NE 
240856Z AUTO 29003KT 10SM CLR 21/21 A2998 RMK AO2 SLP149 T02110206 55004
KBFM 
11nm E 
240853Z 29003KT 10SM CLR 22/21 A2998 RMK AO2 SLP153 T02220211 55005
KPQL 
16nm SW 
240853Z AUTO 00000KT 8SM CLR 18/17 A2998 RMK AO2 SLP152 T01830167 55002
TAF
KMOB 
3nm NE 
240520Z 2406/2506 30004KT P6SM FEW250 FM241600 25005KT P6SM BKN040 BKN250 FM242100 22006KT P6SM FEW045 FEW250
KBFM 
11nm E 
240520Z 2406/2506 29003KT P6SM FEW250 FM241600 12005KT P6SM SCT040 SCT250 FM242100 18006KT P6SM FEW045 FEW250
NOTAMs
Click for the latest NOTAMs
NOTAMs are issued by the DoD/FAA and will open in a separate window not controlled by AirNav.

 

 
 

Would you like to see your business listed on this page?

 If your business provides an interesting product or service to pilots, flight crews, aircraft, or users of the Richardson Field Airport, you should consider listing it here.  To start the listing process, click on the button below
 
Add a business
 

Other Pages about Richardson Field Airport

Update a link
 
Copyright © AirNav, LLC. All rights reserved. Privacy Policy  Contact